#timestamp,LO_Frequency,Hit,StdDev 
1581084015.5,286047001.5,N
1581084035.4,286047000.2,N
1581084055.2,286047002.3,N
1581084075.0,286047000.0,N
1581084075.9,286047000.0,N
1581084095.8,286046999.8,N
1581084115.6,286047002.0,N
1581084135.5,286047000.3,N
1581084155.3,286047002.2,N
1581084175.1,286047000.0,N
1581084195.9,286047001.2,N
1581084215.7,286046999.5,N
1581084235.5,286046999.3,N
1581084255.4,286046996.6,N
1581084275.2,286046997.4,N
1581084295.1,286046997.3,N
1581084296.0,286046997.3,N
1581084315.8,286046997.8,N
1581084335.6,286046998.7,N
1581084355.5,286046997.8,N
1581084375.3,286046997.7,N
1581084395.1,286046999.6,N
1581084415.9,286046997.9,N
1581084435.7,286046997.1,N
1581084455.6,286046999.0,N
1581084475.4,286046998.4,N
1581084495.2,286046996.9,N
1581084515.1,286046998.9,N
1581084516.0,286046998.9,N
1581084535.8,286046998.4,N
1581084555.6,286046997.8,N
1581084575.5,286046997.4,N
1581084595.3,286046996.5,N
1581084615.2,286046997.4,N
1581084635.9,286046998.8,N
1581084655.7,286046999.0,N
1581084675.6,286046998.6,N
1581084695.4,286046997.0,N
1581084715.2,286046996.6,N
1581084735.1,286046999.3,N
1581084736.0,286046999.3,N
1581084755.8,286046996.8,Y
1581084775.7,286047002.8,P
1581084795.5,286046998.4,N
1581084815.3,286047000.8,N
1581084835.2,286046999.7,N
1581084855.0,286047002.2,N
1581084855.9,286047002.2,N
1581084875.8,286047001.8,N
1581084895.6,286047001.4,N
1581084915.4,286047000.0,N
1581084935.3,286046999.7,N
1581084955.1,286047000.4,N
1581084956.0,286047000.4,N
1581084975.8,286047002.4,N
1581084995.7,286047000.6,N
1581085015.5,286046998.4,N
1581085035.3,286046999.4,N
1581085055.2,286046998.5,N
1581085075.0,286046998.9,N
1581085075.9,286046998.9,N
1581085095.8,286046999.1,N
1581085115.6,286046998.9,N
1581085135.4,286046998.5,N
1581085155.3,286046996.8,N
1581085175.1,286046999.0,N
1581085195.9,286046997.2,N
1581085215.7,286046995.2,Y
1581085235.5,286046997.6,P
1581085255.4,286046994.9,P
1581085275.2,286046997.2,N
1581085295.0,286046997.4,N
1581085295.9,286046997.4,N
1581085315.8,286046996.5,N
1581085335.6,286046996.8,N
1581085355.5,286046997.2,N
1581085375.3,286046999.5,N
1581085395.1,286046998.2,N
1581085415.9,286046998.4,N
1581085435.7,286046995.3,Y
1581085455.5,286046999.2,P
1581085475.4,286046999.4,N
1581085495.2,286046999.4,N
1581085515.1,286046999.6,N
1581085516.0,286046999.6,N
1581085535.8,286046997.2,Y
1581085555.6,286046999.4,P
1581085575.5,286046996.9,P
1581085595.3,286046995.3,P
1581085615.1,286046996.6,N
1581085635.9,286046999.3,N
1581085655.7,286046998.2,N
1581085675.6,286047000.2,N
1581085695.4,286046998.2,N
1581085715.2,286047001.2,N
1581085735.1,286047000.4,N
1581085736.0,286047000.4,N
1581085755.8,286046999.4,N
1581085775.6,286047000.2,N
1581085795.5,286047000.5,N
1581085815.3,286047000.9,N
1581085835.2,286046998.2,N
1581085855.9,286046998.3,N
1581085875.7,286046999.2,N
1581085895.6,286046998.4,N
1581085915.4,286046998.8,N
1581085935.2,286046998.5,N
1581085955.1,286046998.3,N
1581085956.0,286046998.3,N
1581085975.8,286047001.2,N
1581085995.7,286047001.2,N
1581086015.5,286047000.8,N
1581086035.3,286046998.7,N
1581086055.2,286046999.3,N
1581086075.9,286046996.9,N
1581086095.7,286046999.6,N
1581086115.6,286046997.1,N
1581086135.4,286046997.0,N
1581086155.2,286046999.6,N
1581086175.1,286046997.2,N
1581086176.0,286046997.2,N
1581086195.8,286046999.6,N
1581086215.7,286046998.7,N
1581086235.5,286046999.1,N
1581086255.3,286047000.3,N
1581086275.2,286047000.1,N
1581086295.0,286046999.8,N
1581086295.9,286046999.8,N
1581086315.7,286047000.1,N
1581086335.6,286047004.3,Y
1581086355.4,286047003.6,P
1581086375.3,286047006.0,N
1581086395.1,286047005.2,N
1581086415.8,286047004.0,N
1581086435.7,286047001.7,N
1581086455.5,286047001.8,N
1581086475.4,286047001.6,N
1581086495.2,286047005.6,N
1581086515.0,286047003.4,N
1581086515.9,286047003.4,N
1581086535.8,286047003.5,N
1581086555.6,286047003.2,N
1581086575.4,286047004.2,N
1581086595.3,286047004.1,N
1581086615.1,286047004.4,N
1581086635.9,286047004.3,N
1581086655.7,286047001.6,N
1581086675.5,286047001.5,N
1581086695.4,286047002.2,N
1581086715.2,286047002.7,N
1581086735.0,286047003.6,N
1581086735.9,286047003.6,N
1581086755.8,286047004.1,N
1581086775.6,286047004.3,N
1581086795.5,286047004.0,N
1581086815.3,286047003.2,N
1581086835.1,286047004.2,N
1581086855.9,286047001.5,N
1581086875.7,286047001.7,N
1581086895.5,286047002.1,N
1581086915.4,286046999.9,N
1581086935.2,286047002.6,N
1581086955.1,286046999.7,N
1581086956.0,286046999.7,N
1581086975.8,286047002.7,N
1581086995.6,286047002.7,N
1581087015.5,286046999.8,N
1581087035.3,286047002.6,N
1581087055.1,286047001.5,N
1581087075.9,286046999.8,N
1581087095.7,286046999.7,N
1581087115.6,286047002.1,N
1581087135.4,286046999.7,N
1581087155.2,286047001.9,N
1581087175.1,286047002.6,N
1581087176.0,286047002.6,N
1581087195.8,286047001.9,N
1581087215.6,286047004.4,N
1581087235.5,286047003.3,N
1581087255.3,286047006.7,Y
1581087275.2,286047005.7,P
1581087295.9,286047007.4,P
1581087315.7,286047006.6,N
1581087335.6,286047008.6,Y
1581087355.4,286047005.5,P
1581087375.2,286047002.9,P
1581087395.1,286047005.3,P
1581087396.0,286047005.3,Y
1581087415.8,286046998.2,P
1581087435.7,286046998.1,N
1581087455.5,286046998.1,N
1581087475.3,286047000.7,N
1581087495.2,286046998.7,N
1581087515.0,286046998.9,N
1581087515.9,286046998.9,N
1581087535.7,286046998.1,N
1581087555.6,286046998.3,N
1581087575.4,286046998.6,N
1581087595.3,286047000.5,N
